SCP
0 0 0 0 0 0 0 0 0 0 0 0 0 0 0 0 0 0 0 0 0 0 0 0 0 0 0 0 0 0 0 0 0 0 0 0 0 0 0 0 0 0 0 0 0 0 0 0 0
0 0 0 0 0 0 0 0 0 0 0 0 0 0 0 0 0 0 0 0 0 0 0 0 0 0 0 0 0 0 0 0 0 0 0 0 0 0 0 0 0 0 0 0 0 0 0 0 0
0 0 0 0 0 0 0 0 0 0 0 0 0 0 0 0 0 0 0 0 0 0 0 0 0 0 0 0 0 0 0 0 0 0 0 0 0 0 0 0 0 0 0 0 0 0 0 0 0
0 0 0 0 0 0 0 0 0 0 0 0 0 0 0 0 0 0 0 0 0 0 0 0 0 0 0 0 0 0 0 0 0 0 0 0 0 0 0 0 0 0 0 0 0 0 0 0 0
0 0 0 0 0 0 0 0 0 0 0 0 0 0 0 0 0 0 0 0 0 0 0 0 0 0 0 0 0 0 0 0 0 0 0 0 0 0 0 0 0 0 0 0 0 0 0 0 0
0 0 0 0 0 0 0 0 0 0 0 0 0 0 0 0 0 0 0 0 0 0 0 0 0 0 0 0 0 0 0 0 0 0 0 0 0 0 0 0 0 0 0 0 0 0 0 0 0
0 0 0 0 0 0 0 0 0 0 0 0 0 0 0 0 0 0 0 0 0 0 0 0 0 0 0 0 0 0 0 0 0 0 0 0 0 0 0 0 0 0 0 0 0 0 0 0 0
0 0 0 0 0 0 0 0 0 0 0 0 0 0 0 0 0 0 0 0 0 0 0 0 0 0 0 0 0 0 0 0 0 0 0 0 0 0 0 0 0 0 0 0 0 0 0 0 0
0 0 0 0 0 0 0 0 0 0 0 0 0 0 0 0 0 0 0 0 0 0 0 0 0 0 0 0 0 0 0 0 0 0 0 0 0 0 0 0 0 0 0 0 0 0 0 0 0
0 0 0 0 0 0 0 0 0 0 0 0 0 0 0 0 0 0 0 0 0 0 0 0 0 0 0 0 0 0 0 0 0 0 0 0 0 0 0 0 0 0 0 0 0 0 0 0 0
0 0 0 0 0 0 0 0 0 0 0 0 0 0 0 0 0 0 0 0 0 0 0 0 0 0 0 0 0 0 0 0 0 0 0 0 0 0 0 0 0 0 0 0 0 0 0 0 0
0 0 0 0 0 0 0 0 0 0 0 0 0 0 0 0 0 0 0 0 0 0 0 0 0 0 0 0 0 0 0 0 0 0 0 0 0 0 0 0 0 0 0 0 0 0 0 0 0
0 0 0 0 0 0 0 0 0 0 0 0 0 0 0 0 0 0 0 0 0 0 0 0 0 0 0 0 0 0 0 0 0 0 0 0 0 0 0 0 0 0 0 0 0 0 0 0 0
0 0 0 0 0 0 0 0 0 0 0 0 0 0 0 0 0 0 0 0 0 0 0 0 0 0 0 0 0 0 0 0 0 0 0 0 0 0 0 0 0 0 0 0 0 0 0 0 0
0 0 0 0 0 0 0 0 0 0 0 0 0 0 0 0 0 0 0 0 0 0 0 0 0 0 0 0 0 0 0 0 0 0 0 0 0 0 0 0 0 0 0 0 0 0 0 0 0
0 0 0 0 0 0 0 0 0 0 0 0 0 0 0 0 0 0 0 0 0 0 0 0 0 0 0 0 0 0 0 0 0 0 0 0 0 0 0 0 0 0 0 0 0 0 0 0 0
0 0 0 0 0 0 0 0 0 0 0 0 0 0 0 0 0 0 0 0 0 0 0 0 0 0 0 0 0 0 0 0 0 0 0 0 0 0 0 0 0 0 0 0 0 0 0 0 0
0 0 0 0 0 0 0 0 0 0 0 0 0 0 0 0 0 0 0 0 0 0 0 0 0 0 0 0 0 0 0 0 0 0 0 0 0 0 0 0 0 0 0 0 0 0 0 0 0
0 0 0 0 0 0 0 0 0 0 0 0 0 0 0 0 0 0 0 0 0 0 0 0 0 0 0 0 0 0 0 0 0 0 0 0 0 0 0 0 0 0 0 0 0 0 0 0 0
0 0 0 0 0 0 0 0 0 0 0 0 0 0 0 0 0 0 0 0 0 0 0 0 0 0 0 0 0 0 0 0 0 0 0 0 0 0 0 0 0 0 0 0 0 0 0 0 0
0 0 0 0 0 0 0 0 0 0 0 0 0 0 0 0 0 0 0 0 0 0 0 0 0 0 0 0 0 0 0 0 0 0 0 0 0 0 0 0 0 0 0 0 0 0 0 0 0
0 0 0 0 0 0 0 0 0 0 0 0 0 0 0 0 0 0 0 0 0 0 0 0 0 0 0 0 0 0 0 0 0 0 0 0 0 0 0 0 0 0 0 0 0 0 0 0 0
0 0 0 0 0 0 0 0 0 0 0 0 0 0 0 0 0 0 0 0 0 0 0 0 0 0 0 0 0 0 0 0 0 0 0 0 0 0 0 0 0 0 0 0 0 0 0 0 0
0 0 0 0 0 0 0 0 0 0 0 0 0 0 0 0 0 0 0 0 0 0 0 0 0 0 0 0 0 0 0 0 0 0 0 0 0 0 0 0 0 0 0 0 0 0 0 0 0
0 0 0 0 0 0 0 0 0 0 0 0 0 0 0 0 0 0 0 0 0 0 0 0 0 0 0 0 0 0 0 0 0 0 0 0 0 0 0 0 0 0 0 0 0 0 0 0 0
0 0 0 0 0 0 0 0 0 0 0 0 0 0 0 0 0 0 0 0 0 0 0 0 0 0 0 0 0 0 0 0 0 0 0 0 0 0 0 0 0 0 0 0 0 0 0 0 0
0 0 0 0 0 0 0 0 0 0 0 0 0 0 0 0 0 0 0 0 0 0 0 0 0 0 0 0 0 0 0 0 0 0 0 0 0 0 0 0 0 0 0 0 0 0 0 0 0
0 0 0 0 0 0 0 0 0 0 0 0 0 0 0 0 0 0 0 0 0 0 0 0 0 0 0 0 0 0 0 0 0 0 0 0 0 0 0 0 0 0 0 0 0 0 0 0 0
0 0 0 0 0 0 0 0 0 0 0 0 0 0 0 0 0 0 0 0 0 0 0 0 0 0 0 0 0 0 0 0 0 0 0 0 0 0 0 0 0 0 0 0 0 0 0 0 0
0 0 0 0 0 0 0 0 0 0 0 0 0 0 0 0 0 0 0 0 0 0 0 0 0 0 0 0 0 0 0 0 0 0 0 0 0 0 0 0 0 0 0 0 0 0 0 0 0
Wind_Speed
16 12 7 3 3 3 3 1 3 5 5 7 7 6 9 11 8 7 2 5 9 10 10 7 7 8 8 8 8 8 7 7 8 8 9 9 9 9 9 9 9 9 9 9 10 10 10 9 9
12 10 5 3 3 2 1 2 4 7 7 5 5 6 8 9 8 6 3 4 8 10 9 8 7 8 8 8 8 8 7 8 8 8 8 8 8 9 8 8 8 8 9 9 9 9 9 8 8
11 8 3 2 2 2 0 4 7 8 7 4 4 7 7 7 6 4 3 4 8 9 9 8 8 8 8 8 8 8 8 8 8 8 8 8 9 8 8 8 7 7 8 8 8 8 8 8 7
5 3 3 2 2 1 2 4 5 6 6 5 5 8 7 7 5 4 4 5 8 9 9 8 8 9 9 8 8 8 8 8 8 8 9 9 8 8 8 7 6 6 7 7 7 7 6 6 6
3 3 3 3 3 0 3 4 4 5 4 4 5 7 7 6 8 6 4 6 7 8 8 8 8 8 8 8 8 8 8 9 8 8 8 8 8 7 7 6 6 5 5 6 6 5 5 5 4
3 2 3 4 3 2 3 3 4 5 6 5 4 5 7 5 7 4 4 6 7 8 7 7 7 7 7 7 7 7 8 8 8 8 8 8 7 6 6 5 5 5 5 5 4 3 3 3 3
2 3 4 4 3 1 2 2 4 4 5 5 4 4 6 5 5 3 4 6 7 7 7 5 4 5 6 7 7 7 7 7 7 6 6 6 5 5 5 5 4 4 4 4 3 2 2 2 2
3 2 4 4 3 1 2 2 4 5 5 6 6 5 4 3 3 4 5 6 7 6 5 4 4 3 3 4 5 6 6 5 5 5 5 4 3 4 4 4 4 4 4 3 2 2 1 2 3
3 2 2 2 1 2 3 3 3 4 6 7 8 8 7 6 5 5 6 6 6 6 5 4 3 3 2 2 4 3 4 4 4 3 3 2 1 1 2 3 3 3 3 3 3 3 3 3 4
1 1 1 3 4 4 6 5 3 3 5 6 7 10 9 7 6 6 6 5 5 5 4 4 4 3 2 2 2 1 2 2 1 2 1 0 1 1 2 3 2 1 1 2 3 4 4 3 2
2 1 2 5 6 5 5 6 7 3 5 5 5 6 6 6 6 5 4 4 3 3 4 4 4 3 3 2 2 1 1 1 1 2 1 1 2 2 2 1 1 0 1 1 2 2 2 2 2
2 4 3 4 6 5 5 3 5 6 5 6 6 7 6 6 5 4 3 3 2 3 3 3 4 3 3 3 2 2 2 2 2 3 3 2 2 2 1 1 1 1 1 1 2 1 2 3 3
2 3 4 5 5 5 5 4 4 4 4 6 6 7 6 5 4 3 3 4 3 3 3 3 3 3 3 3 2 3 3 3 3 3 3 4 2 2 2 2 2 2 2 2 2 2 2 3 3
4 4 3 2 2 2 3 3 2 2 3 5 5 5 5 5 4 4 4 3 3 3 2 2 3 2 3 3 3 2 2 2 2 3 3 3 3 3 2 2 2 3 3 3 2 3 3 3 2
4 3 2 1 1 1 1 2 0 0 1 3 4 4 5 4 4 3 3 3 3 2 2 3 3 3 3 3 3 2 2 2 2 2 3 4 3 3 2 2 2 2 2 2 2 3 3 3 3
2 2 1 1 1 2 1 1 1 2 2 2 2 3 3 4 4 3 3 3 3 3 3 3 3 3 3 3 2 2 2 3 3 3 3 3 3 3 2 2 2 3 2 2 2 3 3 3 4
1 1 2 1 0 1 1 1 1 1 2 2 2 2 2 3 4 3 3 3 3 2 2 3 3 3 2 2 2 2 2 3 3 3 3 3 4 3 3 2 2 3 2 3 3 3 3 4 4
0 0 0 0 1 1 2 2 1 0 1 1 1 2 2 3 3 3 3 3 3 3 3 3 2 2 1 1 2 2 3 3 3 3 3 4 4 4 3 3 3 3 2 3 3 4 3 3 4
1 1 0 1 1 0 2 2 2 1 1 1 1 1 2 2 2 3 4 3 3 3 3 3 3 2 1 1 1 1 1 2 2 3 4 4 4 4 3 3 3 3 3 3 4 3 4 3 4
2 2 2 1 2 1 2 3 3 2 2 1 1 1 1 2 2 3 3 3 3 3 3 3 2 2 2 2 1 0 0 1 1 2 3 4 4 4 4 4 3 3 3 4 4 4 3 3 3
2 1 1 1 2 2 1 3 3 2 2 1 1 1 1 1 1 2 3 3 3 3 2 2 2 2 2 2 1 1 1 1 1 2 2 3 4 4 4 4 3 3 3 3 4 4 4 3 3
1 2 2 1 1 2 2 3 3 4 3 2 2 1 1 1 1 2 2 2 2 3 2 2 2 2 2 2 2 2 1 0 1 1 1 3 3 3 3 4 3 3 3 4 4 4 3 3 3
1 3 3 3 2 2 2 3 3 2 4 4 3 2 1 1 1 1 1 1 2 2 3 2 2 3 2 2 2 1 1 1 1 1 2 2 2 3 4 4 4 4 3 3 4 4 4 3 3
2 2 3 2 1 3 3 3 4 2 3 2 3 2 1 1 1 1 1 2 2 2 3 3 3 3 3 2 2 2 2 2 2 2 2 2 2 3 4 4 4 4 3 3 3 3 4 3 3
2 1 1 1 1 3 2 3 4 1 0 1 2 2 2 1 1 1 2 2 3 3 3 3 3 3 3 3 2 2 1 1 2 2 1 1 1 2 3 3 3 3 3 3 3 3 3 3 3
2 2 0 1 2 2 2 4 3 1 2 2 3 3 2 1 0 1 1 2 2 2 2 2 2 2 3 3 2 2 2 1 1 1 1 1 1 1 2 2 3 3 3 3 3 2 2 3 3
2 1 1 1 2 3 4 3 1 1 1 2 2 2 1 1 1 1 1 1 1 1 1 1 1 2 2 2 2 2 2 2 2 2 1 1 1 2 2 2 3 3 3 3 3 2 2 2 2
1 1 0 0 1 3 4 3 3 2 2 2 3 2 2 2 1 0 0 1 1 0 0 1 1 1 1 2 2 2 2 2 2 2 2 2 2 2 2 2 3 3 3 3 3 3 3 3 3
1 1 1 1 1 2 4 3 1 2 2 2 3 3 3 3 2 1 1 1 0 0 0 0 1 1 1 1 2 2 2 1 1 1 2 2 2 2 2 2 3 3 3 3 2 3 3 3 4
1 2 1 1 2 3 3 5 1 1 1 1 2 2 2 2 2 2 2 1 1 0 0 0 0 1 1 1 1 1 2 2 2 2 2 2 2 2 2 3 3 3 3 3 3 3 3 3 4
Wind_Direction
313 299 282 266 242 229 226 157 76 74 65 54 49 49 57 47 40 85 80 75 98 111 118 115 107 110 106 103 100 97 96 94 91 90 89 89 89 88 89 86 82 79 77 77 75 72 69 68 65
305 298 282 248 249 229 209 119 90 67 63 70 65 61 69 68 59 81 65 68 105 114 119 113 101 103 104 102 100 96 96 94 91 89 90 92 94 88 87 85 82 79 77 78 76 72 69 67 64
290 273 275 260 260 255 218 61 87 85 69 62 72 51 49 54 63 63 68 89 104 108 110 107 99 100 100 98 94 92 93 91 91 86 84 89 90 85 80 80 80 77 76 76 75 72 67 62 59
296 270 244 245 227 312 71 57 80 100 80 48 75 85 75 38 31 60 91 99 99 100 105 108 99 98 99 95 92 89 87 84 86 85 82 82 85 81 77 75 77 78 77 77 76 73 67 59 51
262 255 237 235 228 125 63 61 68 85 90 55 61 89 82 44 51 68 86 95 97 99 100 107 94 95 96 93 91 88 86 83 81 81 81 81 82 80 76 74 71 77 79 76 75 71 63 53 42
277 247 226 221 203 152 63 34 62 74 78 61 52 87 87 56 49 49 71 86 90 93 96 101 85 86 88 90 88 85 85 83 82 81 79 79 81 81 77 71 67 65 73 68 62 65 57 42 22
291 281 244 219 195 150 72 36 41 70 66 44 13 80 98 51 42 40 68 79 83 90 95 99 96 90 82 81 84 80 77 75 75 78 78 77 78 80 75 64 57 57 57 56 44 40 31 6 342
304 286 240 234 216 160 73 54 32 46 55 40 32 65 93 64 55 60 65 70 71 72 81 88 96 101 98 94 87 85 80 74 74 73 71 71 78 84 81 68 58 52 42 37 25 9 328 308 295
297 256 246 255 249 75 74 87 40 53 77 62 53 53 81 93 84 78 67 59 56 54 55 65 73 78 85 99 98 102 97 86 88 82 79 83 84 115 114 84 69 49 26 11 353 325 296 287 273
323 231 285 2 35 45 44 47 46 67 72 66 65 66 83 90 86 86 80 69 58 49 46 46 45 50 55 66 89 91 101 101 95 81 87 18 23 41 53 94 92 43 354 326 315 309 299 280 267
33 92 55 34 40 39 48 39 27 46 39 44 73 87 94 93 87 84 87 83 74 65 51 42 37 41 46 42 59 49 49 53 36 40 34 17 34 40 44 68 79 311 288 296 298 292 288 295 307
75 47 32 33 28 23 19 31 46 39 35 25 60 90 99 96 90 83 82 84 73 67 55 43 35 38 43 46 41 49 47 39 31 23 18 21 24 15 16 26 12 354 336 329 331 320 314 308 302
105 83 61 62 52 41 40 46 69 38 31 46 64 81 84 80 75 73 67 66 58 48 38 38 43 43 38 44 39 47 47 48 38 35 23 21 23 11 10 3 7 356 351 347 331 324 316 310 307
113 107 83 56 55 26 44 23 59 34 39 56 64 73 78 75 68 55 48 49 49 47 36 32 39 40 52 52 46 43 51 50 47 43 29 26 25 17 16 11 12 356 354 347 335 328 328 313 308
133 129 99 27 252 196 41 16 57 210 63 66 61 67 75 70 68 55 44 43 37 35 31 37 46 43 57 58 49 42 46 57 53 44 33 31 25 20 22 17 9 347 344 341 343 334 329 324 318
196 174 136 78 233 219 184 265 50 138 115 90 67 60 66 68 69 58 51 43 41 43 38 41 39 43 48 56 57 47 43 52 49 39 35 32 26 19 24 22 4 349 351 358 355 344 337 330 323
182 167 168 112 341 202 178 220 61 115 125 113 100 79 62 60 53 48 54 50 39 55 52 48 44 47 47 48 56 52 52 53 45 37 30 22 23 21 25 18 4 0 3 358 352 350 343 332 325
133 82 223 158 65 103 165 204 194 227 133 132 102 91 71 55 44 43 55 58 46 52 59 54 47 45 53 60 60 47 50 51 42 36 27 24 24 21 25 24 8 2 10 1 353 343 338 330 321
15 51 26 353 29 24 197 223 219 205 137 146 129 104 89 71 59 52 50 49 49 43 43 46 45 30 28 36 50 50 32 34 37 32 25 23 21 19 27 20 10 7 10 1 350 343 336 339 334
58 46 344 341 355 291 233 251 230 216 201 189 175 129 93 81 56 56 51 44 44 40 26 33 32 31 26 14 16 115 119 59 50 36 27 20 18 14 18 17 7 4 3 3 356 351 341 342 355
34 21 314 305 319 270 267 267 218 213 219 191 176 168 107 97 83 59 48 37 35 34 18 13 23 34 27 23 33 41 59 49 38 23 14 14 17 17 15 11 9 3 5 358 351 350 350 338 340
338 9 343 292 257 239 232 273 236 204 209 216 214 176 109 83 74 63 51 31 24 13 9 20 27 36 24 22 38 32 36 358 347 16 13 12 16 15 17 14 13 14 11 6 357 1 354 347 337
342 334 297 277 292 299 241 254 265 194 229 226 210 194 169 157 112 81 77 47 29 20 15 16 30 36 33 29 33 31 14 7 19 32 30 21 14 17 16 20 20 21 16 10 4 2 7 5 354
291 287 280 272 272 265 229 230 269 231 241 221 193 168 155 163 144 91 70 67 50 37 22 15 25 27 27 36 35 42 34 20 18 24 31 24 15 13 17 22 22 17 13 11 9 7 9 5 0
319 337 14 347 243 243 188 226 253 232 234 155 155 142 131 106 94 81 66 50 43 35 26 18 27 22 19 27 26 26 18 27 21 1 7 10 10 10 4 9 13 11 6 8 10 11 3 0 357
318 339 70 255 266 279 219 234 244 90 91 98 103 115 114 97 78 103 96 83 64 38 23 21 27 21 22 22 16 15 10 13 6 6 357 345 353 7 11 10 10 5 358 358 3 3 349 356 356
332 47 290 309 299 280 241 229 230 110 107 118 122 134 143 147 137 103 84 83 79 60 38 21 21 20 19 11 12 17 18 20 12 3 1 350 0 2 13 8 1 357 350 350 352 353 345 349 341
330 349 359 247 309 289 270 241 232 204 218 188 181 192 182 175 167 166 142 113 96 106 66 44 24 6 11 12 3 6 11 16 19 23 21 19 14 8 1 360 353 348 349 350 350 347 339 340 330
228 231 243 255 268 265 293 276 26 167 190 195 204 197 196 199 200 205 200 169 159 111 85 58 19 2 5 9 10 4 353 6 25 18 10 8 6 355 350 343 340 337 336 339 340 334 330 328 325
310 296 228 212 259 236 265 271 343 90 122 167 199 207 203 200 205 204 204 203 206 199 203 276 323 335 338 357 11 4 359 7 15 7 4 4 356 352 346 343 339 336 333 331 327 322 327 330 331